Location: Fisheating Creek Campgrounds
(26.9333°N, 81.3167°W)
Time: 07:27:00
(UTC-04:00)

Cosmos 2221 Rocket - Visible Passes

Search period start: 06 May 2015 00:00
Search period end: 16 May 2015 00:00
Orbit: 622 x 648 km, 82.5° (Epoch: 05 May)

Date Brightness Start Highest point End Pass type
(mag) Time Alt. Az. Time Alt. Az. Time Alt. Az.
06 May 3.6 05:57:12 10° N 06:01:40 86° W 06:06:05 10° S visible
07 May 6.7 04:43:43 10° NE 04:45:36 13° ENE 04:47:45 10° ESE visible
08 May 5.5 05:04:24 10° NNE 05:08:17 30° E 05:12:11 10° SE visible
09 May 3.8 05:26:20 10° N 05:30:46 74° E 05:35:10 10° S visible
10 May 3.9 05:48:53 10° NNW 05:53:08 43° W 05:57:17 10° SSW visible
11 May 5.8 04:33:47 10° NNE 04:37:19 24° ENE 04:40:56 10° SE visible
11 May 5.0 06:12:17 10° NW 06:15:25 18° W 06:18:21 10° SW visible
12 May 4.1 04:55:29 10° N 04:59:51 57° E 05:04:11 10° SSE visible
13 May 3.6 05:17:53 10° NNW 05:22:14 56° W 05:25:50 14° SSW visible
14 May 6.1 04:03:16 10° NNE 04:06:20 19° ENE 04:09:29 10° ESE visible
14 May 4.8 05:41:00 10° NW 05:44:31 23° W 05:46:54 15° SW visible
15 May 4.6 04:24:42 10° N 04:28:56 44° E 04:30:44 29° SE visible
